TimeEDT,TemperatureF,Dew PointF,Humidity,Sea Level PressureIn,VisibilityMPH,Wind Direction,Wind SpeedMPH,Gust SpeedMPH,PrecipitationIn,Events,Conditions,WindDirDegrees,DateUTC
12:54 AM,66.0,60.1,81,30.20,10.0,Calm,Calm,-,N/A,,Scattered Clouds,0,2013-08-26 04:54:00
1:54 AM,66.9,60.1,79,30.17,10.0,SSE,8.1,-,N/A,,Overcast,160,2013-08-26 05:54:00
2:54 AM,69.1,59.0,70,30.15,10.0,South,5.8,-,N/A,,Overcast,170,2013-08-26 06:54:00
3:54 AM,70.0,57.9,65,30.14,10.0,ESE,9.2,-,N/A,,Partly Cloudy,120,2013-08-26 07:54:00
4:54 AM,69.1,57.9,68,30.14,10.0,SSE,4.6,-,N/A,,Clear,160,2013-08-26 08:54:00
5:54 AM,66.0,59.0,78,30.14,10.0,SSE,5.8,-,N/A,,Partly Cloudy,150,2013-08-26 09:54:00
6:54 AM,66.9,59.0,76,30.15,10.0,SE,5.8,-,N/A,,Partly Cloudy,140,2013-08-26 10:54:00
7:54 AM,70.0,60.1,71,30.17,10.0,Calm,Calm,-,N/A,,Overcast,0,2013-08-26 11:54:00
8:54 AM,72.0,60.1,66,30.15,10.0,ESE,6.9,-,N/A,,Mostly Cloudy,110,2013-08-26 12:54:00
9:54 AM,71.1,63.0,75,30.13,6.0,South,4.6,-,0.01,Rain,Light Rain,190,2013-08-26 13:54:00
10:54 AM,72.0,66.0,81,30.13,10.0,East,5.8,-,0.01,Rain,Light Rain,80,2013-08-26 14:54:00
11:54 AM,75.0,64.9,71,30.12,10.0,Calm,Calm,-,N/A,,Clear,0,2013-08-26 15:54:00
12:54 PM,80.1,66.0,62,30.08,10.0,NNW,3.5,-,N/A,,Partly Cloudy,340,2013-08-26 16:54:00
1:54 PM,82.0,66.0,58,30.03,10.0,Calm,Calm,-,N/A,,Mostly Cloudy,0,2013-08-26 17:54:00
2:54 PM,81.0,66.9,62,30.02,10.0,East,3.5,-,N/A,,Scattered Clouds,80,2013-08-26 18:54:00
3:35 PM,80.6,69.8,70,30.01,10.0,NNW,9.2,-,N/A,Thunderstorm,Mostly Cloudy,330,2013-08-26 19:35:00
3:54 PM,78.1,66.9,68,30.04,10.0,NW,15.0,-,0.00,Rain-Thunderstorm,Light Rain,320,2013-08-26 19:54:00
4:03 PM,77.0,66.2,69,30.05,7.0,NW,23.0,28.8,0.01,Rain-Thunderstorm,Light Thunderstorms and Rain,320,2013-08-26 20:03:00
4:20 PM,71.6,68.0,88,30.02,2.0,North,4.6,-,0.13,Rain-Thunderstorm,Heavy Thunderstorms and Rain,350,2013-08-26 20:20:00
4:32 PM,71.6,68.0,88,30.02,4.0,Calm,Calm,-,0.15,Rain-Thunderstorm,Rain,0,2013-08-26 20:32:00
4:43 PM,71.6,68.0,88,30.01,2.5,Calm,Calm,-,0.18,Rain-Thunderstorm,Rain,0,2013-08-26 20:43:00
4:54 PM,71.1,68.0,90,30.01,2.5,SE,6.9,-,0.22,Rain,Rain,140,2013-08-26 20:54:00
5:01 PM,71.6,68.0,88,29.99,3.0,SSE,6.9,-,0.02,Rain,Rain,150,2013-08-26 21:01:00
5:54 PM,72.0,68.0,87,29.98,9.0,East,9.2,-,0.03,,Mostly Cloudy,80,2013-08-26 21:54:00
6:54 PM,72.0,68.0,87,29.97,8.0,Calm,Calm,-,0.00,,Overcast,0,2013-08-26 22:54:00
7:54 PM,72.0,68.0,87,29.98,10.0,Calm,Calm,-,N/A,,Overcast,0,2013-08-26 23:54:00
8:54 PM,73.9,66.0,76,29.99,10.0,West,12.7,19.6,N/A,,Overcast,270,2013-08-27 00:54:00
9:54 PM,73.0,66.0,79,30.00,10.0,Variable,6.9,18.4,0.00,,Overcast,0,2013-08-27 01:54:00
10:54 PM,72.0,66.0,81,30.00,10.0,North,3.5,-,N/A,,Overcast,360,2013-08-27 02:54:00
11:54 PM,70.0,66.0,87,29.99,10.0,South,3.5,-,N/A,,Mostly Cloudy,170,2013-08-27 03:54:00